EW6480 Weather Reports


time (UTC)temp
F
wind
direction
speed
knots
gust
knots
rain 1hr
in
rain 24hr
in
rain mn
in
humidity
%
barometer
mb
20260507211502 65 188 0.9 6.1 0.00 0.03 0.03 31 1005.6
20260507210002 65 166 2.6 6.1 0.00 0.03 0.03 30 1005.4
20260507204700 65 236 0.9 7.0 0.00 0.03 0.03 31 1005.5
20260507203102 65 161 0.0 5.2 0.00 0.03 0.03 32 1005.4
20260507201600 64 266 2.6 7.0 0.00 0.03 0.03 31 1005.5
20260507200056 64 166 0.9 7.8 0.00 0.03 0.03 32 1005.6
20260507194630 64 172 0.0 4.3 0.00 0.03 0.03 32 1005.7
20260507193053 64 252 0.9 5.2 0.00 0.03 0.03 32 1005.8
20260507191552 64 171 0.0 2.6 0.00 0.03 0.03 29 1006.0
20260507190049 64 225 1.7 7.0 0.00 0.03 0.03 29 1006.1
20260507184552 64 149 3.5 5.2 0.00 0.03 0.03 30 1006.1
20260507183045 63 134 0.0 6.1 0.00 0.03 0.03 30 1006.2
20260507181544 63 301 3.5 8.7 0.00 0.03 0.03 31 1006.4
20260507180041 63 148 2.6 8.7 0.00 0.03 0.03 37 1006.4
20260507174547 63 235 0.9 4.3 0.00 0.03 0.03 37 1006.5
20260507173039 62 297 0.0 3.5 0.00 0.03 0.03 39 1006.5
20260507171637 62 247 1.7 7.0 0.00 0.03 0.03 38 1006.6
20260507170039 62 72 2.6 9.6 0.00 0.03 0.03 42 1006.7
20260507164532 61 265 0.0 5.2 0.00 0.03 0.03 46 1006.9
20260507163030 60 129 3.5 6.1 0.00 0.03 0.03 48 1007.1
20260507161534 60 283 1.7 4.3 0.00 0.03 0.03 53 1007.2
20260507160027 60 271 0.0 4.3 0.00 0.03 0.03 55 1007.3
20260507154532 59 215 1.7 7.8 0.00 0.03 0.03 54 1007.4
20260507153037 59 316 0.0 5.2 0.00 0.03 0.03 57 1007.6
20260507151525 59 172 0.0 2.6 0.00 0.03 0.03 58 1007.7
20260507150026 58 205 0.9 3.5 0.00 0.03 0.03 60 1007.8
20260507144524 58 17 0.0 6.1 0.00 0.03 0.03 60 1008.0
20260507143026 57 174 0.0 4.3 0.00 0.03 0.03 60 1008.1
20260507141522 57 329 0.0 4.3 0.00 0.03 0.03 61 1008.2
20260507140021 56 267 0.0 2.6 0.00 0.03 0.03 61 1008.2
20260507134520 55 227 0.9 5.2 0.00 0.03 0.03 64 1008.1
20260507133019 55 254 0.9 7.0 0.00 0.03 0.03 68 1008.2
20260507131520 54 225 0.9 2.6 0.00 0.03 0.03 74 1008.4
20260507130022 53 236 0.0 1.7 0.00 0.03 0.03 80 1008.3
20260507124520 52 235 0.9 3.5 0.00 0.03 0.03 81 1008.7
20260507123012 51 250 0.9 5.2 0.00 0.03 0.03 84 1008.6
20260507121511 51 230 0.0 1.7 0.00 0.03 0.03 86 1008.6
20260507120019 50 6 0.9 3.5 0.00 0.03 0.03 86 1008.4
20260507114509 50 187 0.9 2.6 0.00 0.03 0.03 86 1008.5
20260507113008 50 251 0.0 0.9 0.00 0.03 0.03 86 1008.3
20260507111509 50 290 0.0 1.7 0.00 0.03 0.03 86 1008.4
20260507110008 50 210 0.0 0.9 0.00 0.03 0.03 86 1008.0
20260507104506 50 207 0.0 0.9 0.01 0.03 0.03 86 1008.4
20260507103008 50 244 0.0 1.7 0.02 0.03 0.03 86 1008.4
20260507101502 50 198 0.0 0.9 0.03 0.03 0.03 86 1007.7
20260507100001 50 221 0.0 2.6 0.03 0.03 0.03 86 1007.8
20260507094600 50 309 0.0 0.9 0.02 0.02 0.02 86 1007.7
20260507093102 50 286 0.0 0.9 0.01 0.01 0.01 86 1007.7
20260507091555 51 233 0.0 1.7 0.00 0.00 0.00 86 1007.6
20260507090054 51 200 0.0 3.5 0.00 0.00 0.00 86 1008.0
20260507084552 51 292 0.9 4.3 0.00 0.00 0.00 86 1007.9
20260507083049 52 215 0.0 2.6 0.00 0.00 0.00 86 1007.5
20260507081547 53 215 0.0 2.6 0.00 0.00 0.00 85 1007.2
20260507080046 54 198 0.0 3.5 0.00 0.00 0.00 85 1007.6
20260507074541 55 274 0.9 3.5 0.00 0.00 0.00 84 1007.1
20260507073038 55 229 0.0 3.5 0.00 0.00 0.00 84 1007.2
20260507071559 56 157 0.9 3.5 0.00 0.00 0.00 84 1006.4
20260507070035 56 293 0.0 1.7 0.00 0.00 0.00 84 1006.7
20260507064533 56 330 0.0 1.7 0.00 0.00 0.00 84 1006.7
20260507063034 57 214 0.0 4.3 0.00 0.00 0.00 84 1006.7
20260507061530 57 302 0.0 1.7 0.00 0.00 0.00 84 1006.5
20260507060037 58 214 0.0 1.7 0.00 0.00 0.00 85 1006.7
20260507054526 58 228 0.9 3.5 0.00 0.00 0.00 85 1006.8
20260507053025 59 203 0.0 2.6 0.00 0.00 0.00 85 1007.0
20260507051529 59 283 0.0 5.2 0.00 0.00 0.00 85 1006.6
20260507050022 59 151 0.0 4.3 0.00 0.00 0.00 85 1006.6
20260507044521 60 210 0.9 3.5 0.00 0.00 0.00 86 1006.7
20260507043016 60 268 1.7 5.2 0.00 0.00 0.00 85 1006.5
20260507041514 60 224 0.0 4.3 0.00 0.00 0.00 84 1006.6
20260507040011 60 252 0.9 2.6 0.00 0.00 0.00 84 1006.8
20260507034526 60 205 0.0 4.3 0.00 0.00 0.00 84 1006.7
20260507033015 60 224 1.7 6.1 0.00 0.00 0.00 85 1006.4
20260507031509 60 166 2.6 7.8 0.00 0.00 0.00 85 1006.2
20260507030008 60 234 0.9 3.5 0.00 0.00 0.00 85 1006.2
20260507024508 60 224 1.7 5.2 0.00 0.00 0.00 85 1006.1
20260507023016 60 218 3.5 7.8 0.00 0.00 0.00 84 1006.3
20260507021507 60 283 2.6 7.0 0.00 0.00 0.00 84 1006.2
20260507020006 60 227 2.6 5.2 0.00 0.00 0.00 84 1006.1
20260507014510 60 272 1.7 7.8 0.00 0.00 0.00 84 1006.2
20260507013003 59 285 1.7 7.0 0.00 0.00 0.00 84 1006.2
20260507011505 59 212 2.6 6.1 0.00 0.00 0.00 84 1006.6
20260507010003 59 195 0.0 7.0 0.00 0.00 0.00 84 1006.7
20260507004502 59 176 1.7 9.6 0.00 0.00 0.00 84 1006.7
20260507003002 59 231 1.7 5.2 0.00 0.00 0.00 84 1006.6
20260507001602 59 225 0.9 5.2 0.00 0.00 0.00 84 1006.5
20260507000059 59 296 2.6 6.1 0.00 0.00 0.00 84 1006.2
20260506234556 60 250 0.9 7.0 0.00 0.00 0.00 84 1006.3
20260506233058 60 225 1.7 5.2 0.00 0.00 0.00 84 1006.2
20260506231553 60 218 0.0 8.7 0.00 0.00 0.00 85 1006.1
20260506230051 61 273 0.0 4.3 0.00 0.00 0.00 85 1006.3
20260506224550 61 186 0.0 6.1 0.00 0.00 0.00 85 1006.3
20260506223048 61 264 0.0 6.1 0.00 0.00 0.00 84 1006.2
20260506221546 61 261 0.9 7.0 0.00 0.00 0.00 84 1006.7
20260506220048 62 247 1.7 7.8 0.00 0.00 0.00 85 1006.7
20260506214550 62 222 0.9 9.6 0.00 0.00 0.00 84 1007.0
20260506213042 63 292 2.6 8.7 0.00 0.00 0.00 84 1007.1